Regional Weather Roundup
Issued by NWS

Home | Current Version | Previous Version | Text Only | Print | Product List | Glossary Off
Versions: 1 2 3 4 5 6 7 8 9 10 11 12 13 14 15 16 17 18 19 20 21 22 23 24 25 26 27 28 29 30 31 32 33 34 35 36 37 38 39 40 41 42 43 44 45 46 47 48 49 50

000
ASUS43 KMKX 051311
RWRWI

WISCONSIN REGIONAL WEATHER ROUNDUP
NATIONAL WEATHER SERVICE MILWAUKEE/SULLIVAN WI
800 AM CDT SAT SEP 05 2015

NOTE: "FAIR" INDICATES FEW OR NO CLOUDS BELOW 12,000 FEET WITH NO
SIGNIFICANT WEATHER AND/OR OBSTRUCTIONS TO VISIBILITY.

WIZ001-002-006>008-014>016-023>028-051400-
NORTHWEST WISCONSIN

CITY           SKY/WX    TMP DP  RH WIND       PRES   REMARKS
SUPERIOR ARPT  PTSUNNY   64  61  91 CALM      29.98R
ASHLAND        SUNNY     68  67  96 E3        30.02S
HAYWARD        SUNNY     69  66  90 VRB3      30.00F FOG
SIREN          MOSUNNY   72  68  88 S13       29.96F
CUMBERLAND     CLOUDY    66  64  94 SE8       30.01S FOG
RICE LAKE      MOSUNNY   69  66  90 SE9       30.03S
CHETEK         CLOUDY    68  67  96 SE6       30.02S
LADYSMITH      MOSUNNY   68  66  94 E7        30.06S FOG
EAU CLAIRE     MOSUNNY   70  67  90 NE5       30.01S
MENOMONIE      MOSUNNY   71  70  96 E3        30.02R FOG
NEW RICHMOND   PTSUNNY   75  70  86 S10       29.99S
OSCEOLA        CLOUDY    75  75 100 S10       29.99S
$$

WIZ003>005-009-010-017-018-051400-
NORTH CENTRAL WISCONSIN

CITY           SKY/WX    TMP DP  RH WIND       PRES   REMARKS
MANITOWISH WTR CLOUDY    66  66 100 S5        30.08S FOG
ARBOR VITAE    MOSUNNY   69  66  93 S3        30.09R FOG
WOODRUFF       MOSUNNY   69  66  93 S3        30.09R FOG
RHINELANDER    CLOUDY    67  65  93 S3        30.10F FOG
EAGLE RIVER    CLOUDY    66  66 100 CALM      30.10S FOG
LAND O LAKES   CLOUDY    66  65  96 CALM      30.10S FOG
PHILLIPS       CLOUDY    66  66 100 SE3       30.06F FOG
TOMAHAWK       CLOUDY    67  65  94 CALM      30.09S FOG
MEDFORD        FOG       66  66 100 SE5       30.08S VSB 1/4
MERRILL        CLOUDY    68  67  98 CALM      30.09F FOG
$$

WIZ029-030-035-036-043>047-051400-
CENTRAL WISCONSIN

CITY           SKY/WX    TMP DP  RH WIND       PRES   REMARKS
WAUSAU         CLOUDY    69  65  86 S5        30.07S
MOSINEE        CLOUDY    66  66 100 CALM      30.10R FOG
MARSHFIELD     FOG       68  65  90 E6        30.07R VSB 1/4
STEVENS POINT  CLOUDY    66  65  97 E6        30.08F FOG
WAUPACA        FOG       68  68  98 CALM      30.09S VSB 1
WAUTOMA        FOG       66  66 100 CALM      30.09R VSB 3/4
WISC RAPIDS    CLOUDY    68  64  87 SE7       30.08S
CAMP DOUGLAS   CLOUDY    69  69 100 CALM      30.05S
$$

WIZ011>013-019>022-031-037>040-048>050-051400-
NORTHEAST WISCONSIN

CITY           SKY/WX    TMP DP  RH WIND       PRES   REMARKS
ANTIGO         CLOUDY    65  65  99 CALM      30.10S FOG
SHAWANO        NOT AVBL
OCONTO         CLOUDY    64  64 100 CALM      30.09R
STURGEON BAY   CLOUDY    66  63  88 CALM      30.11S VSB<1/4
GREEN BAY      PTSUNNY   66  65  96 E3        30.09R FOG
MANITOWOC      CLOUDY    63  63 100 MISG      30.09S
APPLETON       NOT AVBL
CLINTONVILLE   CLOUDY    64  63  94 CALM      30.09R FOG
OSHKOSH        MOSUNNY   68  65  90 CALM      30.08R
$$

WIZ032>034-041-042-053>061-051400-
SOUTHWEST WISCONSIN

CITY           SKY/WX    TMP DP  RH WIND       PRES   REMARKS
LA CROSSE      CLOUDY    74  69  85 S9        30.01S
SPARTA         CLOUDY    70  67  92 CALM      30.05R
VIROQUA        CLOUDY    72  67  85 S6        30.06R
BOSCOBEL       CLOUDY    73  71  93 CALM      30.05R FOG
PRAIRIE DU CHI PTSUNNY   73  70  88 E3        30.04R
PLATTEVILLE    PTSUNNY   72  71  99 SE6       30.08R
$$

WIZ056-057-062-063-064-067-068-051400-
SOUTH CENTRAL WISCONSIN

CITY           SKY/WX    TMP DP  RH WIND       PRES   REMARKS
REEDSBURG      MOSUNNY   71  69  92 CALM      30.06R FOG
BARABOO/DELLS  MOSUNNY   69  67  90 CALM      30.07S FOG
LONE ROCK      CLOUDY    71  69  93 SE3       30.05R FOG
MINERAL POINT  LGT RAIN  70  68  94 SE5       30.08R
MADISON        MOSUNNY   70  66  87 E6        30.07R
MIDDLETON      MOSUNNY   72  69  92 E5        30.08S
WATERTOWN      FOG       66  66 100 CALM      30.09R VSB 3/4
MONROE         LGT RAIN  68  66  94 S6        30.08F
JANESVILLE     SUNNY     68  66  94 CALM      30.08  FOG
$$

WIZ051-052-058>065-066-070>072-051400-
SOUTHEAST WISCONSIN

CITY           SKY/WX    TMP DP  RH WIND       PRES   REMARKS
MILWAUKEE      CLOUDY    68  67  96 SE3       30.09R FOG
WAUKESHA       FOG       64  64 100 SE3       30.12R VSB 1
MILWAUKEE/TIMM CLOUDY    66  64  94 CALM      30.10R FOG
RACINE         CLOUDY    69  66  90 S3        30.11R
BURLINGTON     FOG       65  65  99 CALM      30.10R VSB 1
KENOSHA        CLOUDY    68  67  96 CALM      30.10R FOG
FOND DU LAC    MOSUNNY   67  65  93 S3        30.09R
SHEBOYGAN      CLOUDY    65  65 100 S3        30.10R FOG
WEST BEND      PTSUNNY   64  63  94 CALM      30.11R
JUNEAU         FOG       65  64  98 SE5       30.10S VSB 1/2
$$

LSZ147-162-051400-
LAKE SUPERIOR

STATION/POSITION TIME  TEMP    WIND        PRES    WAVE
                       AIR SEA DIR/SP/G            HT/PER
                 (UTC) (F)     (DEG/KT/KT) (MB)    (FT/S)
W MID LAKE BUOY  1250   63 56  150/ 10/ 10 1015.4R   1/ 3
DEVILS ISLAND    1300   67     160/  8/ 11 1015.5R
PORT WING        1200   66     120/  2/  4 1015.6F
SAXON HARBOR     1240   67        CALM     1016.3F
$$

LMZ867-665-643>646-051400-
LAKE MICHIGAN

STATION/POSITION TIME  TEMP    WIND        PRES    WAVE
                       AIR SEA DIR/SP/G            HT/PER
                 (UTC) (F)     (DEG/KT/KT) (MB)    (FT/S)
CHAMBERS ISLAND  1200   66     200/  1/  2 1018.6R
S GREEN BAY BUOY 1300   65 67   50/  2/  4 1020.2R
N MID LAKE BUOY  1250   67 67  270/  4/  4 1018.3R   0
NORTHPORT PIER   1200   67      CALM  /  4 1018.6R
SISTER BAY       1211   66        CALM       N/A
ALGOMA LAKESHORE 1214             CALM       N/A
KEWAUNEE LAKESHO 1200   62        CALM     1017.5S
SHEBOYGAN LAKESH 1300   60     170/  3/  4 1019.5R
PORT WASHINGTON  1200   60     170/  2/  2 1019.3
ATWATER BUOY     1300   60 60   20/  4/  6 1020.4R
MILWAUKEE LAKESH 1210   63      40/  2/  2   N/A
S MID LAKE BUOY  1250   69 71  140/  6/ 10 1018.6R   0
KENOSHA   LAKESH 1300   67     140/  5/  6 1019.0R
$$

TC  - TEMPERATURE IN CELSIUS
VSB - VISIBILITY IN STATUTE MILES
WCI - WIND CHILL INDEX
HX  - HEAT INDEX



USA.gov is the U.S. government's official web portal to all federal, state and local government web resources and services.